Regional Weather Roundup
Issued by NWS Cleveland, OH

Home | Current Version | Previous Version | Graphics & Text | Print | Product List | Glossary On
Versions: 1 2 3 4 5 6 7 8 9 10 11 12 13 14 15 16 17 18 19 20 21 22 23 24 25 26 27 28 29 30 31 32 33 34 35 36 37 38 39 40 41 42 43 44 45 46 47 48 49 50
000
ASUS41 KCLE 150402
RWRCLE
OHIO REGIONAL WEATHER ROUNDUP
NATIONAL WEATHER SERVICE CLEVELAND, OH
1200 AM EDT MON SEP 15 2014

NOTE: "FAIR" INDICATES FEW OR NO CLOUDS BELOW 12,000 FEET WITH NO
SIGNIFICANT WEATHER AND/OR OBSTRUCTIONS TO VISIBILITY.

OHZ001>008-015>018-024>027-034-035-043-044-150500-
   NORTHWEST OHIO

CITY           SKY/WX    TMP DP  RH WIND       PRES   REMARKS
DEFIANCE       CLEAR     50  46  86 CALM      30.21S
FINDLAY        CLEAR     52  47  83 SE3       30.20F
TOLEDO EXPRESS CLEAR     48  46  93 CALM      30.21S
TOLEDO EXEC    CLEAR     50  45  83 SE5       30.22S
LIMA           CLEAR     48  44  86 CALM      30.21S
$$

OHZ009>014-019>023-028>033-038-089-150500-
   NORTHEAST OHIO

CITY           SKY/WX    TMP DP  RH WIND       PRES   REMARKS
CLE-HOPKINS    CLEAR     49  46  90 S6        30.24S
CLE-LAKEFRONT  CLEAR     54  47  77 SE6       30.22S
CUY CO. ARPT   NOT AVBL
LORAIN-ELYRIA  CLEAR     49  45  86 CALM      30.23S
ASHTABULA      CLEAR     44  43  96 CALM      30.24F
AKRON-CANTON   CLEAR     49  44  83 NE6       30.23S
WOOSTER        CLEAR     44  42  93 CALM      30.24R
MANSFIELD      CLEAR     48  44  86 CALM      30.23S
YOUNGSTOWN     CLEAR     44  43  96 CALM      30.23S
$$

OHZ042-051>053-060>062-070>072-077>081-150500-
  SOUTHWEST OHIO

CITY           SKY/WX    TMP DP  RH WIND       PRES   REMARKS
CINC-COVINGTON CLEAR     55  48  77 CALM      30.21S
CINC-LUNKEN    CLEAR     51  51 100 NE3       30.23R
HAMILTON       CLEAR     50  48  93 CALM      30.23S
DAYTON         CLEAR     55  46  71 CALM      30.23S
WRIGHT-PAT AFB CLEAR     51  47  86 CALM      30.22S
DAYTON GENERAL CLEAR     54  49  83 CALM      30.22S
WILMINGTON     CLEAR     48  46  93 CALM      30.23R
$$

OHZ036-037-039>041-045>050-054>059-063>069-073>076-082>088-150500-
  CENTRAL AND SOUTHEAST OHIO

CITY           SKY/WX    TMP DP  RH WIND       PRES   REMARKS
COLUMBUS       CLEAR     55  46  71 CALM      30.22S
OSU AIRPORT    CLEAR     52  46  80 CALM      30.22S
BOLTON FIELD   CLEAR     48  47  97 CALM      30.23S
RICKENBACK AFB CLEAR     51  46  83 CALM      30.22S
NEWARK         FAIR      45  43  93 CALM      30.23S FOG
MARION         CLEAR     48  43  82 CALM      30.22S
LANCASTER      FAIR      47  45  93 CALM      30.23S
ZANESVILLE     FAIR      48  45  89 CALM      30.23S
NEW PHILLY     PTCLDY    46  45  96 CALM      30.24S
$$



USA.gov is the U.S. government's official web portal to all federal, state and local government web resources and services.